Regional Weather Roundup
Issued by NWS

Home | Current Version | Previous Version | Text Only | Print | Product List | Glossary Off
Versions: 1 2 3 4 5 6 7 8 9 10 11 12 13 14 15 16 17 18 19 20 21 22 23 24 25 26 27 28 29 30 31 32 33 34 35 36 37 38 39 40 41 42 43 44 45 46 47 48 49 50

000
ASUS43 KTOP 021608
RWRKS

WEATHER ROUNDUP FOR KANSAS
NATIONAL WEATHER SERVICE GOODLAND KS
1100 AM CDT THU JUL 02 2015

NOTE:  "FAIR" INDICATES FEW OR NO CLOUDS BELOW 12,000 FEET WITH NO
SIGNIFICANT WEATHER AND/OR OBSTRUCTIONS TO VISIBILITY.

KSZ001>006-013>018-027>032-041>047-021700-
NORTHWEST KANSAS

CITY           SKY/WX    TMP DP  RH WIND       PRES   REMARKS
GOODLAND       PTSUNNY   72  55  55 NW7       30.09F
HAYS           PTSUNNY   72  63  73 SE6       29.99S
HILL CITY      LGT RAIN  77  66  68 VRB7      29.99S
RUSSELL        CLOUDY    71  65  81 SW5       29.95F
$$

KSZ061>065-074>080-084>089-021700-
SOUTHWEST KANSAS

CITY           SKY/WX    TMP DP  RH WIND       PRES   REMARKS
DODGE CITY     PTSUNNY   75  66  73 NE16      30.00R
ELKHART          N/A     79  58  48 N13         N/A
GARDEN CITY    PTSUNNY   75  64  68 NE14      30.01R
GREAT BEND     CLOUDY    68  63  83 NE22G32   30.00R THUNDER
LIBERAL        CLOUDY    79  61  53 N14       30.03R
$$

KSZ066>073-081>083-090>101-021700-
SOUTHEAST KANSAS

CITY           SKY/WX    TMP DP  RH WIND       PRES   REMARKS
CHANUTE        PTSUNNY   79  71  76 N10       29.87S
COFFEYVILLE    PTSUNNY   86  73  65 N8        29.85S
HUTCHINSON     CLOUDY    77  70  79 N7        29.95R
MEDICINE LODGE   N/A     87  71  58 NE13      29.91R
NEWTON         CLOUDY    75  66  73 NE13      29.97R
PARSONS        PTSUNNY   83  74  74 N9        29.87S
WICHITA INTL   CLOUDY    81  71  71 NE8       29.91R
WICHITA JABRA  CLOUDY    78  71  79 NE10      29.91S
WICHITA MCCONL PTSUNNY   79  70  73 E8        29.91R
WINFIELD       MOSUNNY   84  70  62 NE12      29.90S
$$

KSZ007>012-019>026-033>040-048>060-102>105-021700-
NORTHEAST KANSAS

CITY           SKY/WX    TMP DP  RH WIND       PRES   REMARKS
CONCORDIA      CLOUDY    72  70  93 S6        29.92F FOG
EMPORIA        CLOUDY    74  69  85 NE8       29.92R
LAWRENCE       CLOUDY    73  68  84 NE7       29.92R
MANHATTAN      CLOUDY    77  69  76 N5        29.94R
MARYSVILLE     CLOUDY    70  68  94 CALM      29.96R
OLATHE IND     CLOUDY    72  68  87 NE12      29.92R FOG
OLATHE EXE     CLOUDY    72  68  87 NE10      29.91S
SALINA         LGT RAIN  76  70  82 NE6       29.95R
TOPEKA BILLARD CLOUDY    75  69  81 NE7       29.92R
TOPEKA FORBES  CLOUDY    76  67  73 NE8       29.92R
$$


USA.gov is the U.S. government's official web portal to all federal, state and local government web resources and services.